Location: Beekmeers
(50.8953°N, 3.6968°E)
Time: 07:03:49
(UTC+00:00)

SL-16 R/B - Pass Details

Date: 23 May 2024
Orbit: 985 x 1007 km, 99.7° (Epoch: 19 June)

Event Time Altitude Azimuth Distance (km) Brightness Sun altitude
Rises 01:48:33 0° 152° (SSE) 3,723 5.2 -13.2°
Reaches altitude 10° 01:51:02 10° 150° (SSE) 2,778 4.6 -13.0°
Maximum altitude 01:57:14 70° 69° (ENE) 1,073 2.9 -12.5°
Drops below altitude 10° 02:03:28 10° 347° (NNW) 2,794 5.5 -12.0°
Sets 02:05:58 0° 345° (NNW) 3,747 6.2 -11.8°
